TimePDT,TemperatureF,Dew PointF,Humidity,Sea Level PressureIn,VisibilityMPH,Wind Direction,Wind SpeedMPH,Gust SpeedMPH,PrecipitationIn,Events,Conditions,WindDirDegrees,DateUTC
12:15 AM,69.8,46.4,43,29.90,10.0,Calm,Calm,-,N/A,,Clear,0,2012-09-27 07:15:00
12:35 AM,69.8,46.4,43,29.90,10.0,East,5.8,-,N/A,,Clear,100,2012-09-27 07:35:00
12:55 AM,69.8,46.4,43,29.90,10.0,East,4.6,-,N/A,,Clear,80,2012-09-27 07:55:00
1:15 AM,69.8,46.4,43,29.90,10.0,East,5.8,-,N/A,,Clear,100,2012-09-27 08:15:00
1:35 AM,68.0,44.6,43,29.90,10.0,East,4.6,-,N/A,,Clear,100,2012-09-27 08:35:00
1:55 AM,69.8,44.6,40,29.91,10.0,East,4.6,-,N/A,,Clear,100,2012-09-27 08:55:00
2:15 AM,68.0,44.6,43,29.91,10.0,ESE,3.5,-,N/A,,Clear,110,2012-09-27 09:15:00
2:35 AM,66.2,44.6,46,29.91,10.0,ESE,5.8,-,N/A,,Clear,120,2012-09-27 09:35:00
2:55 AM,66.2,44.6,46,29.91,10.0,Calm,Calm,-,N/A,,Clear,0,2012-09-27 09:55:00
3:15 AM,66.2,44.6,46,29.91,10.0,Calm,Calm,-,N/A,,Clear,0,2012-09-27 10:15:00
3:55 AM,66.2,42.8,43,29.91,10.0,East,5.8,-,N/A,,Clear,100,2012-09-27 10:55:00
4:15 AM,68.0,42.8,40,29.91,10.0,Calm,Calm,-,N/A,,Clear,0,2012-09-27 11:15:00
5:15 AM,66.2,42.8,43,29.91,10.0,ESE,4.6,-,N/A,,Clear,110,2012-09-27 12:15:00
5:35 AM,66.2,42.8,43,29.92,10.0,East,5.8,-,N/A,,Clear,90,2012-09-27 12:35:00
6:15 AM,68.0,41.0,37,29.92,10.0,East,4.6,-,N/A,,Clear,90,2012-09-27 13:15:00
6:35 AM,66.2,41.0,40,29.92,10.0,Calm,Calm,-,N/A,,Clear,0,2012-09-27 13:35:00
6:55 AM,66.2,41.0,40,29.93,10.0,Calm,Calm,-,N/A,,Clear,0,2012-09-27 13:55:00
7:15 AM,66.2,41.0,40,29.93,10.0,Calm,Calm,-,N/A,,Clear,0,2012-09-27 14:15:00
7:35 AM,69.8,39.2,33,29.93,10.0,East,5.8,-,N/A,,Clear,90,2012-09-27 14:35:00
7:55 AM,69.8,41.0,35,29.94,10.0,East,6.9,-,N/A,,Clear,100,2012-09-27 14:55:00
8:15 AM,73.4,41.0,31,29.94,10.0,East,5.8,-,N/A,,Clear,100,2012-09-27 15:15:00
8:35 AM,75.2,41.0,29,29.94,10.0,East,6.9,-,N/A,,Clear,100,2012-09-27 15:35:00
8:55 AM,77.0,42.8,29,29.95,10.0,East,5.8,-,N/A,,Clear,100,2012-09-27 15:55:00
9:15 AM,78.8,42.8,28,29.95,10.0,East,5.8,-,N/A,,Clear,100,2012-09-27 16:15:00
9:35 AM,80.6,42.8,26,29.95,10.0,ESE,5.8,-,N/A,,Clear,110,2012-09-27 16:35:00
9:55 AM,82.4,42.8,25,29.95,10.0,Calm,Calm,-,N/A,,Clear,0,2012-09-27 16:55:00
10:15 AM,84.2,42.8,23,29.95,10.0,Calm,Calm,-,N/A,,Clear,0,2012-09-27 17:15:00
10:35 AM,86.0,42.8,22,29.96,10.0,Calm,Calm,-,N/A,,Clear,0,2012-09-27 17:35:00
10:55 AM,87.8,42.8,21,29.95,10.0,Calm,Calm,-,N/A,,Clear,0,2012-09-27 17:55:00
11:15 AM,87.8,46.4,24,29.95,10.0,West,5.8,-,N/A,,Clear,270,2012-09-27 18:15:00
11:35 AM,87.8,46.4,24,29.95,10.0,Calm,Calm,-,N/A,,Clear,0,2012-09-27 18:35:00
11:55 AM,87.8,46.4,24,29.95,10.0,WNW,6.9,-,N/A,,Clear,290,2012-09-27 18:55:00
12:15 PM,87.8,46.4,24,29.95,10.0,West,3.5,-,N/A,,Clear,260,2012-09-27 19:15:00
12:35 PM,89.6,46.4,22,29.95,10.0,West,5.8,-,N/A,,Clear,260,2012-09-27 19:35:00
12:55 PM,89.6,46.4,22,29.95,10.0,West,6.9,-,N/A,,Clear,270,2012-09-27 19:55:00
1:15 PM,89.6,46.4,22,29.94,10.0,West,5.8,-,N/A,,Clear,260,2012-09-27 20:15:00
1:35 PM,89.6,46.4,22,29.94,10.0,West,6.9,-,N/A,,Clear,260,2012-09-27 20:35:00
1:55 PM,89.6,46.4,22,29.93,10.0,WSW,6.9,-,N/A,,Clear,250,2012-09-27 20:55:00
2:15 PM,89.6,46.4,22,29.92,10.0,WSW,5.8,-,N/A,,Clear,250,2012-09-27 21:15:00
2:35 PM,91.4,46.4,21,29.92,10.0,West,6.9,-,N/A,,Clear,260,2012-09-27 21:35:00
2:55 PM,91.4,48.2,23,29.91,10.0,West,8.1,-,N/A,,Clear,270,2012-09-27 21:55:00
3:15 PM,91.4,46.4,21,29.91,10.0,West,6.9,-,N/A,,Clear,260,2012-09-27 22:15:00
3:35 PM,91.4,46.4,21,29.91,10.0,West,9.2,-,N/A,,Clear,270,2012-09-27 22:35:00
3:55 PM,91.4,46.4,21,29.90,10.0,West,6.9,-,N/A,,Clear,270,2012-09-27 22:55:00
4:15 PM,91.4,46.4,21,29.90,10.0,WNW,6.9,-,N/A,,Clear,290,2012-09-27 23:15:00
4:35 PM,91.4,44.6,20,29.89,10.0,NW,4.6,-,N/A,,Clear,310,2012-09-27 23:35:00
4:55 PM,91.4,44.6,20,29.89,10.0,NW,5.8,-,N/A,,Clear,310,2012-09-27 23:55:00
5:15 PM,89.6,44.6,21,29.89,10.0,WNW,4.6,-,N/A,,Clear,300,2012-09-28 00:15:00
5:35 PM,89.6,44.6,21,29.89,10.0,West,5.8,-,N/A,,Clear,280,2012-09-28 00:35:00
5:55 PM,89.6,46.4,22,29.88,10.0,West,5.8,-,N/A,,Clear,280,2012-09-28 00:55:00
6:15 PM,87.8,46.4,24,29.88,10.0,Calm,Calm,-,N/A,,Clear,0,2012-09-28 01:15:00
6:35 PM,87.8,46.4,24,29.88,10.0,Calm,Calm,-,N/A,,Clear,0,2012-09-28 01:35:00
6:55 PM,84.2,46.4,27,29.88,10.0,Calm,Calm,-,N/A,,Clear,0,2012-09-28 01:55:00
7:15 PM,80.6,46.4,30,29.88,10.0,Calm,Calm,-,N/A,,Clear,0,2012-09-28 02:15:00
7:35 PM,78.8,46.4,32,29.88,10.0,Calm,Calm,-,N/A,,Clear,0,2012-09-28 02:35:00
8:15 PM,75.2,44.6,34,29.89,10.0,Calm,Calm,-,N/A,,Clear,0,2012-09-28 03:15:00
8:35 PM,71.6,44.6,38,29.89,10.0,Calm,Calm,-,N/A,,Clear,0,2012-09-28 03:35:00
8:55 PM,73.4,44.6,36,29.89,10.0,Calm,Calm,-,N/A,,Clear,0,2012-09-28 03:55:00
9:15 PM,73.4,44.6,36,29.89,10.0,Calm,Calm,-,N/A,,Clear,0,2012-09-28 04:15:00
9:35 PM,73.4,44.6,36,29.90,10.0,Calm,Calm,-,N/A,,Clear,0,2012-09-28 04:35:00
9:55 PM,77.0,44.6,32,29.90,10.0,East,6.9,-,N/A,,Clear,100,2012-09-28 04:55:00
10:15 PM,77.0,42.8,29,29.90,10.0,East,8.1,-,N/A,,Clear,100,2012-09-28 05:15:00
10:55 PM,75.2,39.2,27,29.90,10.0,East,8.1,-,N/A,,Clear,100,2012-09-28 05:55:00
11:15 PM,75.2,39.2,27,29.91,10.0,East,6.9,-,N/A,,Clear,90,2012-09-28 06:15:00
11:35 PM,75.2,39.2,27,29.91,10.0,East,6.9,-,N/A,,Clear,90,2012-09-28 06:35:00